Hourly Weather Roundup
Issued by NWS Central Illinois

Home | Current Version | Previous Version | Text Only | Print | Product List | Glossary On
Versions: 1 2 3 4 5 6 7 8 9 10 11 12 13 14 15 16 17 18 19 20 21 22 23 24 25 26 27 28 29 30 31 32 33 34 35 36 37 38 39 40 41 42 43 44 45 46 47 48 49 50
000
NZUS43 KILX 250510
HWRILX

AREA WEATHER ROUNDUP
NATIONAL WEATHER SERVICE, LINCOLN IL
1200 AM CDT SAT MAR 25 2017


CITY           SKY/WX    TMP DP  RH WIND       PRES   REMARKS
BLOOMINGTON    CLOUDY    60  50  69 E7        30.00F
CHAMPAIGN      CLOUDY    64  53  67 S16       30.00F
DECATUR        CLOUDY    65  54  67 S12       29.99F
EFFINGHAM      CLOUDY    64  55  74 SE9       30.02F
FLORA          CLOUDY    63  55  75 SE9       30.01F
GALESBURG      DRIZZLE   55  55  99 E5        29.96S
JACKSONVILLE   LGT RAIN  58  54  87 NE8       29.93F
LACON          LGT RAIN  50  45  80 NE8       30.00S
LAWRENCEVILLE  CLOUDY    60  52  74 S9        30.04F
LITCHFIELD     MOCLDY    64  56  77 SE10      29.96F
$$


CITY           SKY/WX    TMP DP  RH WIND       PRES   REMARKS
LINCOLN        LGT RAIN  61  56  81 SE3       29.98F
MACOMB         CLOUDY    55  54  99 E9        29.97F
MATTOON        CLOUDY    63  54  72 S10       30.00F
MT CARMEL AP   CLOUDY    63  52  66 SE10      30.04F
OLNEY-NOBLE AP MOCLDY    61  55  82 SE8       30.02F
PARIS          CLOUDY    63  54  74 S13       30.03F
PEORIA         CLOUDY    60  53  77 NE6       29.99F
PONTIAC        CLOUDY    50  46  85 NE12      30.01S
RANTOUL        CLOUDY    62  56  80 S8        30.00S
SPRINGFIELD    LGT RAIN  64  58  80 SE14      29.95F
TAYLORVILLE    CLOUDY    64  55  72 S10       29.98S
$$

...REGIONAL REPORTS...


CITY           SKY/WX    TMP DP  RH WIND       PRES   REMARKS
CHICAGO O`HARE CLOUDY    43  36  76 NE14      30.04F
KANKAKEE       CLOUDY    47  41  78 N7        30.04R
MOLINE         CLOUDY    56  54  93 E10       29.98R FOG
MOUNT STERLING CLOUDY    58  54  87 E14       29.93F
MOUNT VERNON   CLOUDY    65  55  70 SE8       30.00F
PITTSFIELD     CLOUDY    58  56  93 NE12      29.92F
QUINCY         LGT RAIN  57  55  93 SE9       29.92S
ROCKFORD       LGT RAIN  41  38  89 NE13      30.08R WCI  34
$$


CITY           SKY/WX    TMP DP  RH WIND       PRES   REMARKS
BURLINGTON     RAIN      55  55 100 NE8       29.94S FOG
CEDAR RAPIDS   LGT RAIN  45  45 100 NE15      29.98F FOG
DES MOINES     CLOUDY    44  42  93 NE14      29.97S
KIRKSVILLE     CLOUDY    55  54  96 E5        29.90R
OTTUMWA        CLOUDY    50  50 100 NE14      29.94R FOG
ST LOUIS       LGT RAIN  67  58  72 SE14      29.91F
$$


CITY           SKY/WX    TMP DP  RH WIND       PRES   REMARKS
TERRE HAUTE    CLOUDY    66  51  58 S12       30.04F
EVANSVILLE     CLOUDY    64  52  64 SE3       30.06F
INDIANAPOLIS   CLOUDY    64  52  64 S12       30.07S
LAFAYETTE      PTCLDY    63  53  70 SW7       30.02S
MADISON        CLOUDY    37  34  89 MISG      30.12R
MILWAUKEE      LGT RAIN  38  34  85 N15G25    30.10F WCI  29
$$






USA.gov is the U.S. government's official web portal to all federal, state and local government web resources and services.